This demonstration page uses our WeatherBlox Daily Observations layout. Learn more.

Left ArrowRight Arrow

39.01783, -85.05884

Hourly Observations for August 28, 2016

Temp ( °F °C ) Dew Point ( °F °C ) Humidity (%) Winds ( mph kmh ) Pressure ( in mb ) Visibility ( mi km ) Precip ( " mm )
12:52 am 00:52 Mostly Cloudy 75 23.9 73 22.8 94 94 Calm 30.12 1020 10 16 0.00 0.00
1:52 am 01:52 Mostly Cloudy 74 23.3 73 22.8 97 97 N 6 9 30.12 1020 8 13 0.00 0.00
2:52 am 02:52 Partly Cloudy 75 23.9 73 22.8 94 94 Calm 30.12 1020 9 14 0.00 0.00
3:52 am 03:52 Clear 73 22.8 72 22.2 96 96 Calm 30.12 1020 8 13 0.00 0.00
4:52 am 04:52 Mostly Cloudy 70 21.1 70 21.1 100 100 SSE 3 6 30.12 1020 7 11 0.00 0.00
5:52 am 05:52 Mostly Cloudy 74 23.3 72 22.2 94 94 E 3 6 30.12 1020 10 16 0.00 0.00
6:52 am 06:52 Partly Cloudy 72 22.2 72 22.2 100 100 N 5 7 30.14 1021 10 16 0.00 0.00
6:59 am 06:59 Mostly Clear with Mist and Fog 72 22 72 22 100 100 N 5 7 30.15 1021 4 6 0.00 0.00
7:21 am 07:21 Partly Cloudy with Patchy Fog 72 22 72 22 100 100 N 3 6 30.15 1021 3 5 0.00 0.00
7:52 am 07:52 Partly Cloudy with Patchy Fog 73 22.8 73 22.8 100 100 Calm 30.16 1021 4 6 0.00 0.00
8:52 am 08:52 Partly Cloudy 77 25 72 22.2 85 85 NE 7 11 30.18 1022 10 16 0.00 0.00
9:52 am 09:52 Partly Cloudy 81 27.2 71 21.7 72 72 E 6 9 30.18 1022 10 16 0.00 0.00
10:52 am 10:52 Partly Cloudy 85 29.4 71 21.7 63 63 NNE 6 9 30.19 1022 10 16 0.00 0.00
11:52 am 11:52 Partly Cloudy 87 30.6 73 22.8 63 63 ENE 6 9 30.18 1022 10 16 0.00 0.00
12:52 pm 12:52 Partly Cloudy 88 31.1 73 22.8 61 61 E 8 13 30.17 1022 10 16 0.00 0.00
1:52 pm 13:52 Partly Cloudy 89 31.7 72 22.2 57 57 E 8 13 30.16 1022 10 16 0.00 0.00
2:52 pm 14:52 Partly Cloudy 91 32.8 72 22.2 54 54 E 5 7 30.14 1021 10 16 0.00 0.00
3:52 pm 15:52 Partly Cloudy 91 32.8 71 21.7 52 52 NW 5 7 30.11 1020 10 16 0.00 0.00
4:52 pm 16:52 Partly Cloudy 93 33.9 71 21.7 49 49 Calm 30.11 1020 10 16 0.00 0.00
5:52 pm 17:52 Mostly Cloudy 91 32.8 73 22.8 56 56 NNW 8 13 30.10 1019 10 16 0.00 0.00
6:21 pm 18:21 Mostly Cloudy with Thunderstorms 90 32 73 23 59 59 VRB 7 11 30.06 1018 10 16 0.00 0.00
6:36 pm 18:36 Cloudy with Thunderstorms 82 28 68 20 62 62 SE 13 20 30.12 1020 9 14 0.00 0.03
6:43 pm 18:43 Cloudy with Thunderstorms 79 26 70 21 74 74 SE 17 28 30.15 1021 1 2 0.00 0.03
6:52 pm 18:52 Cloudy with Thunderstorms 75 23.9 69 20.6 82 82 SSE 35 56 30.13 1020 1 2 0.01 0.25
7:01 pm 19:01 Cloudy with Thunderstorms 73 23 68 20 83 83 SSE 16 26 30.12 1020 4 6 0.00 0.03
7:09 pm 19:09 Cloudy with Thunderstorms 73 23 68 20 83 83 SSE 25 41 30.12 1020 2 3 0.20 5.08
7:26 pm 19:26 Windy with Storms Likely 73 23 68 20 83 83 E 21 33 30.12 1020 4 6 0.00 0.00
7:33 pm 19:33 Windy with Storms Likely 73 23 70 21 89 89 E 20 31 30.15 1021 5 8 0.26 6.60
7:37 pm 19:37 Windy with Storms Likely 73 23 70 21 89 89 E 26 43 30.18 1022 2 3 0.29 7.37
7:40 pm 19:40 Cloudy with Strong Thunderstorms 72 22 70 21 94 94 E 26 43 30.15 1021 1 1 0.00 0.00
7:52 pm 19:52 Windy with Storms Likely 72 22.2 70 21.1 94 94 E 28 44 30.16 1021 3 5 0.63 16.00
8:30 pm 20:30 Cloudy with Thunderstorms 70 21 70 21 100 100 SE 10 17 30.18 1022 2 3 0.11 2.79
8:42 pm 20:42 Cloudy with Thunderstorms 72 22 70 21 94 94 SE 13 20 30.18 1022 6 10 0.00 0.00
8:52 pm 20:52 Cloudy with Thunderstorms 72 22.2 71 21.7 97 97 SE 9 15 30.17 1022 8 13 0.15 3.81
9:16 pm 21:16 Mostly Cloudy with Thunderstorms 72 22 72 22 100 100 NW 10 17 30.21 1023 7 11 0.00 0.00
9:52 pm 21:52 Mostly Cloudy 71 21.7 70 21.1 96 96 S 5 7 30.19 1022 9 14 0.00 0.03
10:52 pm 22:52 Cloudy 72 22.2 71 21.7 97 97 NE 15 24 30.21 1023 9 14 0.03 0.76
11:52 pm 23:52 Cloudy 71 21.7 70 21.1 96 96 SSE 5 7 30.16 1021 10 16 0.00 0.00

Powered by AerisWeather